Location: ??????
(38.0677°N, 22.9870°E)
Time: 11:37:09
(UTC+00:00)

BREEZE-M DEB (TANK) - Pass Details

Date: 23 May 2024
Orbit: 289 x 16912 km, 49.4° (Epoch: 18 June)

Event Time Altitude Azimuth Distance (km) Brightness Sun altitude
Exits shadow 00:06:14 16° 305° (NW) 1,656 5.3 -26.6°
Maximum altitude 00:09:25 88° 214° (SW) 1,026 4.0 -26.4°
Drops below altitude 10° 00:24:04 10° 129° (SE) 6,841 8.2 -25.0°
Sets 00:34:35 0° 131° (SE) 10,489 9.2 -23.9°
